www.pogodaiklimat.ru

Погода и климат >> Архив погоды >> Россия >> Ростовская область >> Маргаритово


ПОГОДА в Маргаритово

  • Прогноз погоды в Маргаритово
  • Монитор погоды в Маргаритово

АРХИВ ПОГОДЫ в Маргаритово

Время (UTC), дата Ветер
(напр.,м/с)
 
Видим.   Явления Облачность Т
(С)
Тd
(С)
f
(%)
Тe
(С)
Тes
(С)
Комфортность P
(гПа)
Po
(гПа)
Тmin
(С)
Tmax
(С)
R
(мм)
R24
(мм)
S
(см)
18 19.05 В 3 20 км 8/6 600 м
[Cb cap Ac trans]
+20.9 +8.3 44 +23 +23 комфорт 1012.9 1011.4
21 19.05 СВ 1 20 км 1/0
[Ci fib]
+17.8 +8.1 53 +19 +19 1013.2 1011.7
00 20.05 СВ 3 20 км 5/4 1000 м
[Cu hum Ac trans]
+17.8 +12.6 72 +18 +18 1014.3 1012.7
03 20.05 СВ 4 20 км 3/1 600 м
[Cu hum Ac trans]
+17.0 +8.1 56 +17 +17 1015.0 1013.4 +15.1
06 20.05 СВ 4 20 км ясно +22.7 +7.0 36 +23 +30 комфорт 1016.3 1014.8
09 20.05 СВ 6
{10}
20 км ясно +25.9 +8.6 33 +26 +33 жарко 1016.7 1015.2
12 20.05 СВ 5
{11}
20 км 1/1 1000 м
[Cu hum]
+26.5 +6.5 28 +26 +32 жарко 1016.8 1015.3
15 20.05 СВ 5
{10}
20 км ясно +24.7 +9.9 39 +26 +27 жарко 1016.5 1015.0 +26.8
18 20.05 В 3 20 км ясно +19.6 +7.4 45 +21 +21 комфорт 1017.3 1015.8
21 20.05 В 3 20 км ясно +16.3 +5.6 49 +16 +16 1017.8 1016.2
00 21.05 В 3 20 км ясно +13.9 +4.1 52 +13 +13 1018.1 1016.5
03 21.05 В 4 20 км ясно +14.3 +3.2 47 +13 +14 1018.7 1017.1 +12.1
06 21.05 В 7-10
{10}
20 км 3/0
[Ci fib]
+21.2 +3.3 31 +21 +24 комфорт 1018.5 1016.9
09 21.05 В 5
{10}
20 км 6/0
[Ci fib]
+25.2 +4.4 26 +25 +33 комфорт 1018.1 1016.6
12 21.05 В 4
{10}
20 км 9/0
[Cs]
+27.0 +5.8 26 +26 +33 жарко 1017.3 1015.8
15 21.05 В 3 20 км 9/3 600 м
[Cb cap Cs]
+25.5 +7.9 33 +26 +27 жарко 1016.2 1014.7 +27.0
18 21.05 В 3 20 км 8/3 600 м
[Sc Cs]
+20.0 +7.1 43 +21 +21 комфорт 1015.5 1013.9
21 21.05 В 3 20 км 8/3 600 м
[Cb cap Cs]
+17.7 +6.3 47 +18 +18 1015.2 1013.7
00 22.05 В 4 20 км 10/5 600 м
[Cb cap Cs]
+17.0 +6.5 50 +17 +17 1013.6 1012.1
03 22.05 В 4 20 км 8/3 600 м
[Cb cap Ac trans Ci fib]
+17.0 +9.9 63 +17 +17 1013.0 1011.5 +17.0
06 22.05 ЮВ 7-11
{11}
20 км 8/8 600 м
[Cb cap]
+18.8 +9.8 56 +19 +19 1012.5 1011.0
09 22.05 В 2
{11}
20 км 10/3 600 м
[Sc As trans]
+17.6 +11.3 67 +18 +23 1012.1 1010.6
12 22.05 Ю 2 20 км ливневой дождь 10/10 600 м
[Cb cap]
+16.4 +14.8 90 +16 +16 1012.6 1011.0
15 22.05 Ю 3 20 км {ливн. осадки} 10/10 600 м
[Cb cap]
+18.9 +15.2 79 +20 +20 1012.1 1010.6 +19.8 3
18 22.05 ЮВ 2 20 км {ливн. осадки} 6/0 2000 м
[Ac trans]
+14.8 +12.8 88 +14 +14 1011.9 1010.3
21 22.05 Ю 3 10 км 9/6 600 м
[Cb cap Ac trans]
+15.7 +14.3 91 +15 +15 1011.1 1009.6
00 23.05 Ю 3 10 км 8/4 600 м
[Cb cap Ac trans]
+15.8 +14.6 93 +15 +15 1010.7 1009.1
03 23.05 Ю 2 10 км 6/3 600 м
[Cb cap Ac trans]
+15.4 +14.4 94 +15 +16 1010.3 1008.8 +14.4 0.3
06 23.05 З 7-11
{11}
20 км 10/6 600 м
[Cb cap Ac und]
+17.8 +14.2 79 +17 +17 1011.0 1009.4
09 23.05 ЮЗ 8-12
{12}
10 км слаб. ливневой дождь 10/8 600 м
[Cb cap Ac und]
+17.4 +13.3 77 +16 +16 1010.9 1009.3
12 23.05 ЮЗ 7-10
{13}
20 км {ливн. осадки} 10/5 600 м
[Cb cap Ac und]
+18.1 +12.6 70 +17 +18 1010.2 1008.7
15 23.05 ЮЗ 4
{10}
20 км 8/3 1000 м
[Cu hum Ac trans]
+18.5 +14.3 77 +19 +20 1009.3 1007.7 +18.6 0.3
18 23.05 ЮЗ 4 20 км 9/8 600 м
[Cb cap Ac As]
+18.6 +15.4 82 +19 +19 1009.8 1008.3
21 23.05 Ю 2 10 км 10/0 2000 м
[Ac und]
+16.9 +13.9 82 +17 +17 1009.9 1008.4
00 24.05 Ю 2 10 км 10/0 2000 м
[Ac und]
+16.2 +14.6 90 +16 +16 1009.3 1007.8
03 24.05 Ю 2 10 км 8/3 600 м
[Cb cap Ac As]
+17.6 +16.4 93 +18 +18 1009.3 1007.8 +14.9
06 24.05 ЮЗ 2 20 км 6/6 600 м
[Cu med, cong]
+20.4 +17.1 81 +24 +28 комфорт 1009.6 1008.1
09 24.05 З 3 20 км 8/8 600 м
[Cb calv]
+22.6 +17.7 74 +28 +31 душно 1010.0 1008.5
12 24.05 СЗ 2 20 км в посл. час гроза 6/6 600 м
[Cb calv]
+22.2 +17.5 75 +27 +32 душно 1009.9 1008.4
15 24.05 З 2 20 км 10/0
[Ci ing]
+21.5 +17.2 77 +26 +28 душно 1008.9 1007.4 +22.7
18 24.05 В 1 20 км 8/6 600 м
[Cb cap Ac As]
+18.3 +16.1 87 +20 +20 1009.3 1007.8
21 24.05 СВ 2 20 км 8/8 600 м
[Cb cap]
+17.5 +15.6 89 +18 +18 1009.0 1007.5
00 25.05 В 2 10 км 10/10 600 м
[Cb cap]
+17.7 +14.2 80 +18 +18 1008.0 1006.5
03 25.05 С 5 20 км {гроза, ливн. осадки} 10/6 600 м
[Cb cap Ac As]
+18.5 +16.6 89 +19 +19 1007.5 1006.0 +16.3 0.3
06 25.05 В 4 20 км {гроза, ливн. осадки} 10/6 600 м
[Cb cap Ac As]
+21.3 +15.0 67 +24 +25 комфорт 1006.6 1005.1
09 25.05 В 4 20 км 10/10 600 м
[Cb cap]
+23.4 +15.7 62 +28 +28 душно 1005.5 1004.0
12 25.05 ЮЗ 2
{11}
10 км слаб. ливневой дождь {гроза} 10/10 600 м
[Cb cap]
+17.6 +16.2 91 +18 +18 1006.6 1005.0
15 25.05 Ю 1 20 км {ливн. осадки} 10/8 600 м
[Cb cap Ac As]
+19.1 +15.8 81 +22 +22 комфорт 1005.9 1004.4 +23.5 15
18 25.05 ЮЗ 6 10 км слаб. ливневой дождь 10/10 600 м
[Cb cap]
+17.1 +15.7 91 +16 +16 1006.3 1004.8
21 25.05 Ю 3
{12}
10 км слаб. ливневой дождь 10/10 600 м
[Cb cap]
+15.2 +13.7 91 +14 +14 1007.4 1005.9
00 26.05 ЮЗ 8-11
{14}
4000 м ливневой дождь, в посл. час гроза 10/10 600 м
[Cb cap]
+17.2 +15.7 91 +16 +16 1007.2 1005.7
03 26.05 Ю 3
{12}
10 км гроза, ливневой дождь 10/10 600 м
[Cb cap]
+16.2 +14.9 92 +16 +16 1007.5 1005.9 +14.9 16
06 26.05 ЮЗ 8-11
{13}
10 км гроза, ливневой дождь 10/10 600 м
[Cb cap]
+17.6 +16.0 90 +17 +17 1008.8 1007.2
09 26.05 ЮЗ 8-12
{13}
20 км слаб. ливневой дождь, в посл. час гроза 10/10 600 м
[Cb cap]
+18.4 +16.2 87 +18 +18 1009.5 1008.0
12 26.05 ЮЗ 9-14
{14}
20 км {гроза, ливн. осадки} 10/10 600 м
[Cb cap]
+20.1 +16.4 79 +22 +22 комфорт 1009.5 1008.0
15 26.05 ЮЗ 8-11
{14}
20 км 8/6 600 м
[Cb cap Cs]
+19.9 +17.2 84 +22 +22 комфорт 1010.1 1008.6 +20.8 13

 

Местоположение метеостанции Маргаритово (Ростовская область, Россия): широта 46.93 долгота 38.87 высота над уровнем моря 13 м.

В архиве по умолчанию представлена погода в Маргаритово за последнюю неделю. Архивные данные за месяц целиком и за предыдущие месяцы, начиная с января 2011 года, Вы можете получить, выбрав интересующий диапазон дат из раскрывающегося списка и нажав кнопку "Ввод!".


*Определитесь, кто Вы:
робот инопланетянин человек

Внимание! Время в таблицах - всемирное. Для получения местного времени необходимо прибавить поправку, которая равна 3 ч.

Смотрите также архив погоды в соседних городах и на ближайших метеорологических станциях:

Погода в Таганроге (Ростовская область, Россия) (30 км)
Погода в Староминская (Краснодарский край, Россия) (46 км)
Погода в Ейске (Краснодарский край, Россия) (48 км)
Погода в Матвеевом Кургане (Ростовская область, Россия) (71 км)
Погода в Кущевской (Краснодарский край, Россия) (72 км)
Погода в Ростове-на-Дону (Ростовская область, Россия) (81 км)
Погода в Должанке (Краснодарский край, Россия) (91 км)
Погода в Каневской (Краснодарский край, Россия) (96 км)
Погода в Аэропорту Платов (Ростовская область, Россия) (101 км)
Погода в Мариуполе (Донецкая область, Украина) (105 км)

Пояснения к столбцам:

Ветер - указаны скорость ветра в м/с - средняя за 10 мин, порывы в срок и между сроками (в фигурных скобках) и направление, откуда дует ветер: С - северный, СВ - северо-восточный, В - восточный, ЮВ - юго-восточный, Ю - южный, ЮЗ - юго-западный, З - западный, СЗ - северо-западный.
Видимость - горизонтальная дальность видимости в метрах или километрах. При видимости от 1 до 10 км при отсутствии осадков обычно наблюдается дымка, при ухудшении видимости до 1 км и менее - туман. В сухую погоду видимость может ухудшаться дымом, пылью или мглою.
Явления - указаны атмосферные явления, наблюдавшиеся в срок или в последний час перед сроком; фигурными скобками обозначены явления, наблюдавшиеся между сроками (за 1-3 часа до срока); квадратными скобками обозначены град или гололедные отложения с указанием их диаметра в мм.
Облачность - указаны через наклонную черту общая и нижняя облачность в баллах и высота нижней границы облаков в метрах; квадратными скобками обозначены формы облаков: Ci - перистые, Cs - перисто-слоистые, Cc - перисто-кучевые, Ac - высококучевые, As - высокослоистые, Sc - слоисто-кучевые, Ns - слоисто-дождевые, Cu - кучевые, Cb - кучево-дождевые. Подробнее классификацию облаков см. в Атласе облаков (PDF).
T - Температура воздуха - температура, измеренная на высоте 2 м над землей.
Td - Температура точки росы - температура, при понижении до которой содержащийся в воздухе водяной пар достигнет насыщения.
f - Относительная влажность воздуха - влажноcть воздуха, измеренная на высоте 2 м над землей.
Te - Эффективная температура - температура, которую ощущает одетый по сезону человек в тени. Характеристика душности погоды. При расчете учитывается влияние влажности воздуха и скорости ветра на теплоощущения человека.
Tes - Эффективная температура на солнце - температура, которую ощущает человек, с поправкой на солнечный нагрев. Характеристика знойности погоды. Зависит от высоты солнца над горизонтом, облачности и скорости ветра. Ночью, в пасмурную погоду, а также при ветре 12 м/с и более поправка равна нулю.
P - Атмосферное давление - приведенное к уровню моря атмосферное давление.
Po - Атмосферное давление - измеренное на уровне метеостанции атмосферное давление.
Tmin - Минимальная температура - минимум температуры воздуха на высоте 2 м над землей.
Tmax - Максимальная температура - максимум температуры воздуха на высоте 2 м над землей.
R - Количество осадков - Количество выпавших осадков за период времени, мм. При наведении курсора мыши на число - период времени, за который выпало указанное количество осадков.
R24 - Количество осадков - Количество выпавших осадков за 24 часа, мм.
S - Снежный покров - Высота снежного покрова, см. При наведении курсора мыши на число - состояние снежного покрова и степень покрытия местности в баллах.